FW6835 Weather Reports


time (UTC)temp
F
wind
direction
speed
knots
gust
knots
rain 1hr
in
rain 24hr
in
rain mn
in
humidity
%
barometer
mb
20260902141538 66 107 0.0 0.0 0.00 0.00 0.00 78 1020.6
20260902141034 66 77 0.0 0.0 0.00 0.00 0.00 78 1020.8
20260902140533 66 98 0.0 0.0 0.00 0.00 0.00 80 1020.8
20260902140035 66 98 0.0 0.0 0.00 0.00 0.00 79 1021.0
20260902135532 66 99 0.0 0.0 0.00 0.01 0.00 79 1021.0
20260902135032 66 99 0.0 0.0 0.00 0.01 0.00 79 1021.1
20260902134532 66 99 0.0 0.0 0.00 0.01 0.00 80 1020.9
20260902134032 66 99 0.0 0.0 0.00 0.01 0.00 78 1020.9
20260902133532 66 96 0.0 0.0 0.00 0.01 0.00 81 1020.8
20260902133032 66 96 0.0 0.0 0.00 0.01 0.00 80 1021.0
20260902132533 66 84 0.0 0.0 0.00 0.01 0.00 78 1021.0
20260902132031 66 98 0.0 0.0 0.00 0.01 0.00 78 1021.1
20260902131531 66 246 0.0 0.0 0.00 0.01 0.00 79 1021.1
20260902131031 66 240 0.0 0.0 0.00 0.01 0.00 77 1021.0
20260902130530 66 251 0.0 0.0 0.00 0.01 0.00 76 1021.1
20260902130029 66 150 0.0 0.0 0.00 0.01 0.00 74 1021.0
20260902125529 67 242 0.0 0.0 0.00 0.01 0.00 75 1021.2
20260902125029 67 243 0.0 0.0 0.00 0.01 0.00 74 1021.1
20260902124530 67 167 0.0 0.0 0.00 0.01 0.00 73 1021.2
20260902124028 68 243 0.0 0.0 0.00 0.01 0.00 74 1021.2
20260902123528 67 213 0.0 0.0 0.00 0.01 0.00 75 1021.1
20260902123032 67 233 0.0 0.0 0.00 0.01 0.00 74 1021.2
20260902122528 67 228 0.0 0.0 0.00 0.01 0.00 75 1021.2
20260902122027 67 189 0.0 0.0 0.00 0.01 0.00 74 1021.1
20260902121527 67 262 0.0 0.0 0.00 0.01 0.00 75 1021.2
20260902121031 67 205 0.0 0.0 0.00 0.01 0.00 77 1021.3
20260902120527 66 253 0.0 0.0 0.00 0.01 0.00 74 1021.3
20260902120026 67 167 0.0 0.0 0.00 0.01 0.00 77 1021.4
20260902115525 67 189 0.0 0.0 0.00 0.01 0.00 75 1021.3
20260902115026 67 196 0.0 0.0 0.00 0.01 0.00 75 1021.4
20260902114528 67 137 0.0 0.0 0.00 0.01 0.00 74 1021.4
20260902114027 67 146 0.0 0.0 0.00 0.01 0.00 73 1021.2
20260902113526 68 201 0.0 0.0 0.00 0.01 0.00 70 1021.5
20260902113026 69 213 0.0 0.0 0.00 0.01 0.00 70 1021.4
20260902112524 69 173 0.0 0.0 0.00 0.01 0.00 72 1021.4
20260902112024 69 223 0.0 0.0 0.00 0.01 0.00 70 1021.4
20260902111534 68 123 0.0 0.0 0.00 0.01 0.00 76 1021.4
20260902111025 68 221 0.0 0.0 0.00 0.01 0.00 75 1021.4
20260902110520 67 275 0.0 0.0 0.00 0.01 0.00 73 1021.4
20260902110020 67 295 0.0 0.0 0.00 0.01 0.00 75 1021.5
20260902105524 67 161 0.0 0.0 0.00 0.01 0.00 76 1021.6
20260902105019 67 108 0.0 0.0 0.00 0.01 0.00 74 1021.8
20260902104532 67 136 0.0 0.0 0.00 0.01 0.00 77 1021.7
20260902104020 66 192 0.0 0.0 0.00 0.01 0.00 74 1021.6
20260902103517 67 250 0.0 0.0 0.00 0.01 0.00 79 1021.8
20260902103014 66 234 0.0 0.0 0.00 0.01 0.00 77 1021.6
20260902102616 66 169 0.0 0.0 0.00 0.01 0.00 79 1021.8
20260902102015 65 169 0.0 0.0 0.00 0.01 0.00 81 1021.8
20260902101513 65 98 0.0 0.0 0.00 0.01 0.00 79 1021.8
20260902101013 65 221 0.0 0.0 0.00 0.01 0.00 78 1022.1
20260902100513 65 248 0.0 0.0 0.00 0.01 0.00 78 1022.0
20260902100012 65 194 0.0 0.0 0.00 0.01 0.00 78 1021.9
20260902095513 65 238 0.0 0.0 0.00 0.01 0.00 80 1022.0
20260902095010 65 150 0.0 0.0 0.00 0.01 0.00 79 1022.1
20260902094517 65 127 0.0 0.0 0.00 0.01 0.00 81 1022.0
20260902094008 64 173 0.0 0.0 0.00 0.01 0.00 82 1022.1
20260902093511 64 213 0.0 0.0 0.00 0.01 0.00 82 1022.1
20260902093006 63 271 0.0 0.0 0.00 0.01 0.00 80 1022.1
20260902092509 63 216 0.0 0.0 0.00 0.01 0.00 80 1022.2
20260902092006 63 242 0.0 0.0 0.00 0.01 0.00 84 1022.3
20260902091505 63 171 0.0 0.0 0.00 0.01 0.00 82 1022.3
20260902091004 63 224 0.0 0.0 0.00 0.01 0.00 84 1022.2
20260902090503 63 239 0.0 0.0 0.00 0.01 0.00 82 1022.2
20260902090127 62 239 0.0 0.0 0.00 0.01 0.00 81 1022.2
20260902085606 62 175 0.0 0.0 0.00 0.01 0.00 85 1022.0
20260902085502 62 175 0.0 0.0 0.00 0.01 0.00 85 1022.1
20260902085100 62 194 0.0 0.0 0.00 0.01 0.00 83 1022.2
20260902084603 62 202 0.0 0.0 0.00 0.01 0.00 83 1022.2
20260902084100 61 220 0.0 0.0 0.00 0.01 0.00 85 1022.2
20260902083556 61 249 0.0 0.0 0.00 0.01 0.00 84 1022.3
20260902083055 61 250 0.0 0.0 0.00 0.01 0.00 83 1022.2
20260902082555 61 276 0.0 0.0 0.00 0.01 0.00 86 1022.1
20260902082053 61 218 0.0 0.0 0.00 0.01 0.00 85 1022.2
20260902081552 60 276 0.0 0.0 0.00 0.01 0.00 86 1022.1
20260902081050 60 227 0.0 0.0 0.00 0.01 0.00 87 1022.1
20260902080549 60 215 0.0 0.0 0.00 0.01 0.00 85 1022.1
20260902080056 59 210 0.0 0.0 0.00 0.01 0.00 88 1022.1
20260902075546 59 236 0.0 0.0 0.00 0.01 0.00 88 1022.1
20260902075050 59 235 0.0 0.0 0.00 0.01 0.00 90 1021.9
20260902074545 59 159 0.0 0.0 0.00 0.01 0.00 90 1022.1
20260902074045 58 212 0.0 0.0 0.00 0.01 0.00 90 1022.1
20260902073543 58 290 0.0 0.0 0.00 0.01 0.00 89 1022.0
20260902073042 58 234 0.0 0.0 0.00 0.01 0.00 90 1021.9
20260902072541 57 235 0.0 0.0 0.00 0.01 0.00 91 1021.9
20260902072044 57 253 0.0 0.0 0.00 0.01 0.00 92 1022.1
20260902071541 57 215 0.0 0.0 0.00 0.01 0.00 91 1022.0
20260902071042 57 239 0.0 0.0 0.00 0.01 0.00 92 1022.0
20260902070540 57 243 0.0 0.0 0.00 0.01 0.00 92 1022.0
20260902070040 57 243 0.0 0.0 0.00 0.01 0.00 93 1022.1
20260902065541 57 294 0.0 0.0 0.00 0.01 0.00 93 1022.2
20260902065140 56 242 0.0 0.0 0.00 0.01 0.00 92 1022.1
20260902064542 56 269 0.0 6.1 0.00 0.01 0.00 93 1022.1
20260902064041 56 209 0.0 0.0 0.00 0.01 0.00 93 1022.1
20260902063538 56 261 0.0 0.0 0.00 0.01 0.00 93 1022.1
20260902063038 56 214 0.0 0.0 0.00 0.01 0.00 93 1022.0
20260902062537 56 242 0.0 0.0 0.00 0.01 0.00 93 1022.1
20260902062037 56 252 0.0 0.0 0.00 0.01 0.00 93 1022.1
20260902061544 56 242 0.0 0.9 0.00 0.01 0.00 93 1022.2
20260902061038 56 240 0.0 0.0 0.00 0.01 0.00 94 1022.1
20260902060533 56 239 0.0 0.0 0.00 0.01 0.00 94 1022.1
20260902060034 56 221 0.0 0.0 0.00 0.01 0.00 94 1022.1
20260902055533 55 179 0.0 0.0 0.00 0.02 0.00 94 1021.9
20260902055031 55 230 0.0 0.0 0.00 0.02 0.00 94 1022.0
20260902054530 55 226 0.0 0.0 0.00 0.02 0.00 95 1022.0
20260902054029 55 209 0.0 0.0 0.00 0.02 0.00 95 1021.8
20260902053529 55 202 0.0 0.0 0.00 0.02 0.00 95 1021.8
20260902053036 55 202 0.0 0.0 0.00 0.02 0.00 95 1021.9
20260902052530 55 205 0.0 0.0 0.00 0.02 0.00 95 1021.9
20260902052028 55 205 0.0 0.0 0.00 0.02 0.00 95 1021.8
20260902051529 55 205 0.0 0.0 0.00 0.02 0.00 94 1021.9
20260902051027 55 205 0.0 0.0 0.00 0.02 0.00 94 1021.8
20260902050526 55 218 0.0 0.0 0.00 0.02 0.00 94 1021.8
20260902050025 55 140 0.0 0.0 0.00 0.02 0.00 94 1021.7
20260902045524 55 140 0.0 0.0 0.00 0.02 0.00 94 1021.5
20260902045024 55 140 0.0 0.0 0.00 0.02 0.00 94 1021.6
20260902044524 55 232 0.0 0.0 0.00 0.02 0.00 94 1021.6
20260902044024 55 232 0.0 0.0 0.00 0.02 0.00 94 1021.6
20260902043523 55 233 0.0 0.0 0.00 0.02 0.00 94 1021.6
20260902043027 55 233 0.0 0.0 0.00 0.02 0.00 94 1021.5
20260902042524 55 232 0.0 0.0 0.00 0.02 0.00 94 1021.6
20260902042023 55 232 0.0 0.0 0.00 0.02 0.00 94 1021.5
20260902041524 55 231 0.0 0.0 0.00 0.02 0.00 94 1021.3
20260902041022 55 231 0.0 0.0 0.00 0.02 0.00 94 1021.4
20260902040522 55 231 0.0 0.0 0.00 0.02 0.00 94 1021.4
20260902040022 55 231 0.0 0.0 0.00 0.02 0.00 94 1021.4
20260902035520 55 231 0.0 0.0 0.00 0.02 0.00 94 1021.4
20260902035020 55 231 0.0 0.0 0.00 0.02 0.00 94 1021.3
20260902034520 55 231 0.0 0.0 0.00 0.02 0.00 93 1021.3
20260902034019 55 231 0.0 0.0 0.00 0.02 0.00 93 1021.3
20260902033518 56 231 0.0 0.0 0.00 0.02 0.00 92 1021.3
20260902033030 56 231 0.0 0.0 0.00 0.02 0.00 92 1021.4
20260902032518 56 231 0.0 0.0 0.00 0.02 0.00 92 1021.4
20260902032018 56 231 0.0 0.0 0.00 0.02 0.00 92 1021.4
20260902031518 57 231 0.0 0.0 0.00 0.02 0.00 92 1021.3
20260902031018 57 231 0.0 0.0 0.00 0.02 0.00 91 1021.4
20260902030519 57 231 0.0 0.0 0.00 0.02 0.00 91 1021.4
20260902030019 57 231 0.0 0.0 0.00 0.02 0.00 91 1021.4
20260902025518 57 231 0.0 0.0 0.00 0.02 0.00 92 1021.4
20260902025019 57 230 0.0 0.0 0.00 0.02 0.00 92 1021.7
20260902024516 57 257 0.0 0.0 0.00 0.02 0.00 92 1021.7
20260902024016 56 253 0.0 0.0 0.00 0.02 0.00 92 1021.6
20260902023516 56 195 0.0 0.0 0.00 0.02 0.00 92 1021.6
20260902023116 56 90 0.0 0.0 0.00 0.02 0.00 92 1021.7
20260902022517 56 90 0.0 0.0 0.00 0.02 0.00 92 1021.7
20260902022016 56 90 0.0 0.0 0.00 0.02 0.00 92 1021.5
20260902021518 56 90 0.0 0.0 0.00 0.02 0.00 92 1021.6
20260902021015 56 90 0.0 0.0 0.00 0.02 0.00 92 1021.5
20260902020515 56 90 0.0 0.0 0.00 0.02 0.00 92 1021.6
20260902020016 56 90 0.0 0.0 0.00 0.02 0.00 92 1021.6
20260902015514 56 90 0.0 0.0 0.00 0.02 0.00 92 1021.5
20260902015014 56 90 0.0 0.0 0.00 0.02 0.00 92 1021.5
20260902014526 56 90 0.0 0.0 0.00 0.02 0.00 91 1021.5
20260902014017 56 90 0.0 0.0 0.00 0.02 0.00 91 1021.5
20260902013513 56 90 0.0 0.0 0.00 0.02 0.00 91 1021.6
20260902013013 56 90 0.0 0.0 0.00 0.02 0.00 91 1021.6
20260902012512 56 90 0.0 0.0 0.00 0.02 0.00 91 1021.5
20260902012012 56 90 0.0 0.0 0.00 0.02 0.00 91 1021.5
20260902011521 56 90 0.0 0.0 0.00 0.02 0.00 90 1021.4
20260902011012 56 90 0.0 0.0 0.00 0.02 0.00 90 1021.5
20260902010511 56 90 0.0 0.0 0.00 0.02 0.00 90 1021.5
20260902010010 56 90 0.0 0.0 0.00 0.02 0.00 90 1021.5
20260902005510 57 90 0.0 0.0 0.00 0.02 0.00 90 1021.6
20260902005011 57 90 0.0 0.0 0.00 0.02 0.00 90 1021.5
20260902004510 57 90 0.0 0.0 0.00 0.02 0.00 89 1021.5
20260902004008 57 90 0.0 0.0 0.00 0.02 0.00 89 1021.5
20260902003508 57 90 0.0 0.0 0.00 0.02 0.00 89 1021.6
20260902003010 57 90 0.0 0.0 0.00 0.02 0.00 89 1021.5
20260902002508 57 90 0.0 0.0 0.00 0.02 0.00 89 1021.6
20260902002007 57 90 0.0 0.0 0.00 0.02 0.00 89 1021.5
20260902001506 57 92 0.0 0.0 0.00 0.02 0.00 88 1021.6
20260902001006 57 92 0.0 0.0 0.00 0.02 0.00 88 1021.8
20260902000610 57 92 0.0 0.0 0.00 0.02 0.00 88 1021.8
20260902000006 58 92 0.0 0.0 0.00 0.02 0.00 87 1021.9
20260901235507 58 105 0.0 0.0 0.00 0.02 0.00 86 1021.8
20260901235004 58 105 0.0 0.0 0.00 0.02 0.00 85 1021.8
20260901234513 58 246 0.0 0.0 0.00 0.02 0.00 85 1021.9
20260901234004 59 200 0.0 0.0 0.00 0.02 0.00 84 1021.9
20260901233504 59 229 0.0 0.0 0.00 0.02 0.00 83 1021.7
20260901233003 59 228 0.0 0.0 0.00 0.02 0.00 83 1021.7
20260901232503 59 229 0.0 0.0 0.00 0.02 0.00 82 1022.0
20260901232008 59 248 0.0 0.0 0.00 0.02 0.00 83 1022.0
20260901231502 58 167 0.0 0.0 0.00 0.02 0.00 82 1022.0
20260901231002 58 117 0.0 0.0 0.00 0.02 0.00 83 1021.6
20260901230601 58 117 0.0 0.0 0.00 0.02 0.00 83 1021.6
20260901230137 58 117 0.0 0.0 0.00 0.02 0.00 83 1021.5
20260901225559 58 117 0.0 0.0 0.00 0.02 0.00 83 1021.5
20260901225058 58 117 0.0 0.0 0.00 0.02 0.00 83 1021.4
20260901224558 58 117 0.0 0.0 0.00 0.02 0.00 83 1021.3
20260901224057 58 117 0.0 0.0 0.00 0.02 0.00 84 1021.3
20260901223557 58 117 0.0 0.0 0.00 0.02 0.00 83 1021.3
20260901223111 58 117 0.0 0.0 0.00 0.02 0.00 84 1021.3
20260901222555 58 117 0.0 0.0 0.00 0.02 0.00 84 1021.3
20260901222055 58 117 0.0 0.0 0.00 0.02 0.00 84 1021.3
20260901221555 58 117 0.0 0.0 0.00 0.02 0.00 84 1021.2
20260901221055 58 117 0.0 0.0 0.00 0.02 0.00 84 1021.2
20260901220555 58 117 0.0 0.0 0.00 0.02 0.00 84 1021.3
20260901220059 58 117 0.0 0.0 0.00 0.02 0.00 84 1021.1
20260901215552 58 117 0.0 0.0 0.00 0.02 0.02 84 1021.0
20260901215052 58 117 0.0 0.0 0.00 0.02 0.02 84 1021.1
20260901214552 58 117 0.0 0.0 0.00 0.02 0.02 85 1021.1
20260901214052 58 117 0.0 0.0 0.00 0.02 0.02 84 1021.2
20260901213553 58 117 0.0 0.0 0.00 0.02 0.02 84 1021.2
20260901213052 58 117 0.0 0.0 0.00 0.02 0.02 84 1021.2
20260901212552 58 117 0.0 0.0 0.00 0.02 0.02 83 1021.0
20260901212052 58 117 0.0 0.0 0.00 0.02 0.02 83 1021.3
20260901211555 58 117 0.0 0.0 0.00 0.02 0.02 83 1021.2
20260901211051 58 117 0.0 0.0 0.00 0.02 0.02 83 1021.3
20260901210551 58 117 0.0 0.0 0.00 0.02 0.02 84 1021.4
20260901210058 58 117 0.0 0.0 0.00 0.02 0.02 84 1021.2
20260901205554 58 117 0.0 0.0 0.00 0.02 0.02 85 1021.2
20260901205049 58 117 0.0 0.0 0.00 0.02 0.02 85 1021.2
20260901204550 57 117 0.0 0.0 0.00 0.02 0.02 85 1021.3
20260901204050 57 117 0.0 0.0 0.00 0.02 0.02 86 1021.2
20260901203549 57 117 0.0 0.0 0.00 0.02 0.02 86 1021.2
20260901203052 57 117 0.0 0.0 0.00 0.02 0.02 86 1021.2
20260901202548 57 117 0.0 0.0 0.00 0.02 0.02 86 1021.2
20260901202049 57 117 0.0 0.0 0.00 0.02 0.02 86 1021.1
20260901201550 57 117 0.0 0.0 0.00 0.02 0.02 86 1021.1
20260901201048 57 117 0.0 0.0 0.00 0.02 0.02 85 1021.1
20260901200547 57 117 0.0 0.0 0.00 0.02 0.02 85 1021.0
20260901200058 57 117 0.0 0.0 0.00 0.02 0.02 85 1021.0
20260901195547 57 117 0.0 0.0 0.00 0.02 0.02 85 1021.1
20260901195047 57 117 0.0 0.0 0.00 0.02 0.02 85 1021.1
20260901194601 57 117 0.0 0.0 0.00 0.02 0.02 85 1021.0
20260901194046 58 117 0.0 0.9 0.00 0.02 0.02 85 1021.1
20260901193547 58 117 0.0 0.9 0.00 0.02 0.02 86 1021.0
20260901193046 58 117 0.0 0.0 0.00 0.02 0.02 85 1021.0
20260901192545 58 117 0.0 0.0 0.00 0.02 0.02 85 1021.0
20260901192051 58 117 0.0 0.0 0.00 0.02 0.02 86 1020.9
20260901191546 58 117 0.0 0.0 0.00 0.02 0.02 86 1021.0
20260901191045 58 117 0.0 0.0 0.00 0.02 0.02 85 1020.9
20260901190546 58 117 0.0 0.0 0.00 0.02 0.02 85 1020.9
20260901185546 58 117 0.0 0.0 0.00 0.02 0.02 84 1021.0
20260901185048 58 117 0.0 1.7 0.00 0.02 0.02 84 1020.9
20260901184544 58 117 0.0 1.7 0.00 0.02 0.02 84 1020.8
20260901184044 58 117 0.9 1.7 0.00 0.02 0.02 83 1020.8
20260901183548 59 117 0.0 1.7 0.00 0.02 0.02 83 1020.8
20260901183048 59 117 0.9 1.7 0.00 0.02 0.02 83 1020.7
20260901182544 59 117 0.9 1.7 0.00 0.02 0.02 83 1020.6
20260901182044 59 117 0.9 1.7 0.00 0.02 0.02 83 1020.6
20260901181550 59 117 0.9 1.7 0.00 0.02 0.02 82 1020.5
20260901181043 59 117 0.9 1.7 0.00 0.02 0.02 82 1020.5
20260901180543 59 117 0.0 1.7 0.00 0.02 0.02 81 1020.4
20260901180043 60 117 0.0 0.0 0.00 0.02 0.02 82 1020.3
20260901175543 60 117 0.0 0.0 0.00 0.02 0.02 82 1020.3
20260901175042 60 117 0.0 0.0 0.00 0.02 0.02 81 1020.3
20260901174542 60 117 0.0 1.7 0.00 0.02 0.02 81 1020.2
20260901174045 61 117 0.0 1.7 0.00 0.02 0.02 81 1020.2
20260901173541 61 117 0.0 0.0 0.00 0.02 0.02 80 1020.0
20260901173102 62 117 0.0 1.7 0.00 0.02 0.02 79 1020.3
20260901172541 62 117 0.9 3.5 0.00 0.02 0.02 79 1020.1
20260901172044 63 121 0.9 3.5 0.00 0.02 0.02 78 1020.1
20260901171541 64 119 0.0 1.7 0.00 0.02 0.02 76 1020.2
20260901171047 65 119 0.0 2.6 0.00 0.02 0.02 75 1020.2
20260901170541 66 119 0.9 2.6 0.00 0.02 0.02 72 1020.2
20260901170041 66 214 0.0 1.7 0.00 0.02 0.02 72 1020.3
20260901165540 66 216 0.0 0.9 0.00 0.02 0.02 74 1020.2
20260901165041 67 216 0.0 1.7 0.00 0.02 0.02 74 1020.2
20260901164541 67 214 0.0 2.6 0.00 0.02 0.02 73 1020.2
20260901164040 67 214 0.9 2.6 0.00 0.02 0.02 72 1020.1
20260901163542 67 240 0.0 1.7 0.00 0.02 0.02 74 1020.2
20260901163040 66 241 0.0 1.7 0.00 0.02 0.02 76 1020.1
20260901162539 66 241 0.0 0.0 0.00 0.02 0.02 76 1020.2
20260901162039 66 241 0.0 0.0 0.00 0.02 0.02 77 1020.2
20260901161539 66 241 0.0 1.7 0.00 0.02 0.02 75 1020.0
20260901161039 66 241 0.0 4.3 0.00 0.02 0.02 74 1020.1
20260901160539 67 241 1.7 4.3 0.00 0.02 0.02 71 1020.0
20260901160043 67 267 0.9 3.5 0.00 0.02 0.02 72 1020.0
20260901155538 67 206 0.0 2.6 0.00 0.02 0.02 75 1020.0
20260901155038 66 227 0.0 2.6 0.00 0.02 0.02 75 1020.1
20260901154541 66 255 0.0 1.7 0.00 0.02 0.02 73 1020.1
20260901154038 66 255 0.0 0.9 0.00 0.02 0.02 74 1020.1
20260901153537 66 257 0.0 0.0 0.00 0.02 0.02 73 1020.1
20260901153041 66 257 0.0 3.5 0.00 0.02 0.02 73 1020.1
20260901152537 66 242 0.0 3.5 0.00 0.02 0.02 72 1020.1
20260901152037 67 208 1.7 7.8 0.00 0.02 0.02 70 1020.2
20260901151537 68 247 2.6 7.8 0.00 0.02 0.02 69 1020.1
20260901151037 68 265 0.0 4.3 0.00 0.02 0.02 70 1020.2
20260901150536 68 215 0.9 7.0 0.00 0.02 0.02 71 1020.1
20260901150036 68 250 1.7 7.0 0.00 0.02 0.02 70 1020.2
20260901145536 67 262 1.7 6.1 0.00 0.02 0.02 71 1020.2
20260901145035 66 178 2.6 6.1 0.00 0.02 0.02 73 1020.4
20260901144538 66 62 0.0 3.5 0.00 0.02 0.02 75 1020.4
20260901144035 65 214 0.0 2.6 0.00 0.02 0.02 79 1020.3
20260901143535 65 153 0.9 2.6 0.00 0.02 0.02 75 1020.2
20260901143041 65 229 0.0 1.7 0.00 0.02 0.02 77 1020.3
20260901142535 65 229 0.0 1.7 0.00 0.02 0.02 76 1020.2
20260901142034 65 229 0.0 2.6 0.00 0.02 0.02 74 1020.3